EHI
0 0 0 0 0 0 0 0 0 0 0 0 0 0 0 0 0 0 0 0 0 0 0 0 0 0 0 0 0 0 0 0 0 0 0 0 0 0
0 0 0 0 0 0 0 0 0 0 0 0 0 0 0 0 0 0 0 0 0 0 0 0 0 0 0 0 0 0 0 0 0 0 0 0 0 0
0 0 0 0 0 0 0 0 0 0 0 0 0 0 0 0 0 0 0 0 0 0 0 0 0 0 0 0 0 0 0 0 0 0 0 0 0 0
0 0 0 0 0 0 0 0 0 0 0 0 0 0 0 0 0 0 0 0 0 0 0 0 0 0 0 0 0 0 0 0 0 0 0 0 0 0
0 0 0 0 0 0 0 0 0 0 0 0 0 0 0 0 0 0 0 0 0 0 0 0 0 0 0 0 0 0 0 0 0 0 0 0 0 0
0 0 0 0 0 0 0 0 0 0 0 0 0 0 0 0 0 0 0 0 0 0 0 0 0 0 0 0 0 0 0 0 0 0 0 0 0 0
0 0 0 0 0 0 0 0 0 0 0 0 0 0 0 0 0 0 0 0 0 0 0 0 0 0 0 0 0 0 0 0 0 0 0 0 0 0
0 0 0 0 0 0 0 0 0 0 0 0 0 0 0 0 0 0 0 0 0 0 0 0 0 0 0 0 0 0 0 0 0 0 0 0 0 0
0 0 0 0 0 0 0 0 0 0 0 0 0 0 0 0 0 0 0 0 0 0 0 0 0 0 0 0 0 0 0 0 0 0 0 0 0 0
0 0 0 0 0 0 0 0 0 0 0 0 0 0 0 0 0 0 0 0 0 0 0 0 0 0 0 0 0 0 0 0 0 0 0 0 0 0
0 0 0 0 0 0 0 0 0 0 0 0 0 0 0 0 0 0 0 0 0 0 0 0 0 0 0 0 0 0 0 0 0 0 0 0 0 0
0 0 0 0 0 0 0 0 0 0 0 0 0 0 0 0 0 0 0 0 0 0 0 0 0 0 0 0 0 0 0 0 0 0 0 0 0 0
0 0 0 0 0 0 0 0 0 0 0 0 0 0 0 0 0 0 0 0 0 0 0 0 0 0 0 0 0 0 0 0 0 0 0 0 0 0
0 0 0 0 0 0 0 0 0 0 0 0 0 0 0 0 0 0 0 0 0 0 0 0 0 0 0 0 0 0 0 0 0 0 0 0 0 0
0 0 0 0 0 0 0 0 0 0 0 0 0 0 0 0 0 0 0 0 0 0 0 0 0 0 0 0 0 0 0 0 0 0 0 0 0 0
0 0 0 0 0 0 0 0 0 0 0 0 0 0 0 0 0 0 0 0 0 0 0 0 0 0 0 0 0 0 0 0 0 0 0 0 0 0
0 0 0 0 0 0 0 0 0 0 0 0 0 0 0 0 0 0 0 0 0 0 0 0 0 0 0 0 0 0 0 0 0 0 0 0 0 0
0 0 0 0 0 0 0 0 0 0 0 0 0 0 0 0 0 0 0 0 0 0 0 0 0 0 0 0 0 0 0 0 0 0 0 0 0 0
0 0 0 0 0 0 0 0 0 0 0 0 0 0 0 0 0 0 0 0 0 0 0 0 0 0 0 0 0 0 0 0 0 0 0 0 0 0
0 0 0 0 0 0 0 0 0 0 0 0 0 0 0 0 0 0 0 0 0 0 0 0 0 0 0 0 0 0 0 0 0 0 0 0 0 0
0 0 0 0 0 0 0 0 0 0 0 0 0 0 0 0 0 0 0 0 0 0 0 0 0 0 0 0 0 0 0 0 0 0 0 0 0 0
0 0 0 0 0 0 0 0 0 0 0 0 0 0 0 0 0 0 0 0 0 0 0 0 0 0 0 0 0 0 0 0 0 0 0 0 0 0
0 0 0 0 0 0 0 0 0 0 0 0 0 0 0 0 0 0 0 0 0 0 0 0 0 0 0 0 0 0 0 0 0 0 0 0 0 0
Wind_Speed
1 1 1 0 1 1 2 3 3 2 0 1 1 1 1 1 2 2 2 4 5 5 6 6 6 6 6 6 6 6 7 7 6 6 6 6 6 6
1 1 1 1 1 1 1 1 2 3 2 1 1 1 1 1 2 2 2 4 4 5 5 5 5 6 5 5 5 5 5 5 5 5 5 5 5 6
0 1 1 1 1 1 1 2 1 2 2 0 1 1 1 2 2 2 2 2 2 4 4 4 4 5 5 5 5 5 5 4 5 5 5 5 5 5
1 1 1 1 2 1 1 2 1 2 3 2 0 1 1 1 2 2 2 1 1 2 3 3 3 4 4 4 4 5 5 5 5 5 4 4 4 5
2 2 2 2 2 1 2 2 1 2 2 3 1 1 1 1 2 1 2 1 1 1 1 2 2 2 3 3 3 4 4 4 4 5 4 4 4 4
2 2 2 3 3 3 2 2 2 3 3 3 2 1 1 1 1 1 1 1 1 2 2 2 2 2 3 3 3 3 3 3 3 3 4 4 4 4
1 1 2 3 4 4 3 3 3 3 3 3 2 1 1 1 1 1 1 0 1 1 1 2 1 1 2 2 2 2 2 2 2 2 3 3 3 4
2 1 1 1 3 3 4 5 6 5 4 3 2 2 1 1 1 1 1 1 1 1 1 1 1 1 1 1 2 1 1 1 2 2 3 3 3 4
2 2 1 2 2 2 3 4 3 4 5 5 4 3 2 3 3 2 2 2 1 1 1 1 1 1 1 2 2 1 1 1 2 2 3 2 2 3
2 2 2 1 2 3 3 3 1 1 2 2 3 3 3 3 4 4 3 2 0 0 1 1 1 1 2 2 3 2 2 2 2 3 3 2 3 3
2 2 3 2 3 5 4 3 1 1 1 2 3 2 2 4 4 3 3 2 0 1 1 1 1 1 2 2 2 3 2 2 2 3 3 3 3 3
1 2 4 4 4 6 4 4 3 2 1 1 0 0 0 2 4 4 4 3 1 1 1 1 1 0 2 2 1 2 2 3 3 3 4 3 3 1
2 2 2 4 5 5 5 4 5 3 2 2 1 1 1 1 1 1 2 3 3 3 2 2 1 1 1 2 2 2 1 2 2 3 4 4 3 2
3 3 3 4 5 5 4 4 5 3 2 2 1 1 1 1 1 1 2 2 2 3 3 3 2 2 2 1 2 2 2 2 2 2 2 4 4 4
3 4 4 4 3 3 3 4 3 2 2 2 2 2 2 2 1 0 0 0 0 1 1 2 2 2 2 3 2 2 2 2 2 2 2 3 3 2
2 2 3 3 2 2 2 2 2 3 3 3 3 2 1 1 1 1 1 1 0 1 1 1 2 3 3 3 3 3 3 3 2 2 3 3 3 3
3 2 1 1 1 1 1 1 1 2 2 2 2 2 1 1 1 1 1 1 1 1 1 1 1 1 3 2 3 4 3 3 3 2 2 3 4 4
5 2 2 2 3 3 2 2 2 2 3 2 2 2 2 2 2 1 1 2 2 2 2 1 0 1 1 2 5 4 3 3 3 2 2 3 5 4
3 3 3 3 3 3 3 3 3 2 2 3 3 3 2 2 2 2 2 2 2 3 2 1 1 1 2 4 3 4 3 3 2 3 3 4 5 6
2 3 3 3 3 3 3 3 3 2 2 3 3 3 3 3 2 2 2 3 3 2 2 2 3 3 4 4 4 3 5 4 3 4 4 4 5 6
3 3 3 3 2 3 3 3 3 3 3 3 3 3 3 3 3 3 3 4 3 2 3 4 5 5 2 1 3 4 3 5 6 4 3 3 4 4
3 3 3 3 3 3 3 3 3 3 3 3 3 3 3 3 4 4 4 3 4 4 5 4 2 1 2 4 5 5 5 5 5 7 7 6 4 4
3 3 3 3 3 2 3 3 3 3 2 3 3 3 3 3 3 3 3 4 3 4 3 3 2 2 3 4 5 5 6 6 4 4 5 7 10 12
Wind_Direction
132 131 125 137 132 151 154 151 143 136 313 309 327 355 24 70 61 71 70 70 70 65 63 59 57 63 70 66 62 56 53 50 44 44 47 41 39 36
135 123 114 112 108 112 135 136 143 145 161 259 255 326 30 78 87 82 75 68 68 69 69 62 60 65 72 71 64 58 55 48 40 40 39 34 33 33
135 132 127 114 111 104 110 117 121 130 144 232 34 36 60 68 59 66 71 62 56 64 63 61 62 68 73 73 68 61 54 46 39 34 33 31 29 26
176 145 154 124 111 105 112 116 124 136 143 153 89 42 58 86 85 80 73 82 76 54 62 65 68 68 72 71 65 61 57 49 40 35 31 23 18 22
174 163 163 133 126 115 119 120 117 113 115 136 143 97 68 85 79 61 62 38 41 40 47 50 59 60 62 64 63 59 54 47 41 37 32 23 20 17
151 150 155 161 167 159 140 136 125 112 108 115 115 92 81 89 101 104 58 32 14 20 27 42 56 52 46 49 57 52 44 39 32 27 26 21 13 3
132 147 158 163 163 158 147 145 137 129 125 121 123 106 103 125 178 179 158 50 5 20 31 13 24 20 6 3 16 30 34 31 20 13 8 6 358 349
147 127 128 132 144 144 139 137 139 144 152 144 145 159 193 195 160 152 145 95 324 337 95 351 38 347 317 320 4 8 2 360 1 360 357 359 356 346
159 149 132 121 125 123 120 120 134 141 152 154 156 184 191 197 165 158 165 161 208 261 125 315 350 313 307 330 338 336 336 344 346 343 339 345 356 351
164 162 160 175 148 141 126 107 105 150 179 170 179 192 187 179 173 173 171 148 119 8 120 209 286 285 312 306 326 324 323 321 314 315 319 327 337 334
191 175 174 191 182 156 140 142 146 282 206 179 174 164 150 150 144 121 122 123 247 278 180 178 251 281 292 288 307 333 323 314 312 307 309 317 326 323
213 207 196 195 188 168 164 164 187 230 188 131 98 28 107 147 154 159 163 157 166 250 218 175 206 214 301 293 305 316 310 310 319 316 311 304 313 317
205 220 220 207 201 189 179 186 204 192 164 159 142 99 86 115 172 180 176 172 176 218 198 167 185 194 225 286 301 291 287 291 296 298 303 304 301 293
207 212 212 206 204 199 195 201 192 167 141 142 149 179 200 216 221 208 201 207 210 215 198 174 183 189 194 249 272 287 289 277 274 287 295 304 292 285
206 199 194 193 190 196 200 190 163 152 155 171 201 218 218 213 182 135 75 130 330 291 196 195 195 193 198 222 244 255 278 276 260 273 283 283 277 286
190 177 168 158 153 171 173 182 177 179 181 195 205 205 171 158 172 164 168 166 132 309 304 259 216 195 216 234 236 254 249 262 273 273 276 276 274 262
147 115 110 128 147 166 186 188 182 178 194 188 177 179 186 187 199 178 165 152 183 245 286 312 310 263 231 219 240 250 255 264 264 264 271 282 272 262
141 158 182 191 197 196 196 207 205 205 203 190 184 187 195 201 207 191 182 188 215 235 243 250 347 3 336 280 228 239 248 258 269 267 253 268 280 273
153 185 198 203 206 204 200 197 209 215 201 191 195 199 200 203 200 203 203 216 231 240 243 218 193 185 265 283 277 215 232 258 263 262 253 253 270 281
184 200 213 214 209 209 207 206 208 204 199 204 205 204 201 200 203 209 211 218 233 244 249 228 217 218 230 255 267 267 239 239 246 262 269 271 273 282
207 211 214 214 216 215 214 208 204 209 207 202 208 210 205 200 210 215 216 226 228 234 243 246 243 240 240 250 276 278 269 251 251 253 260 274 286 286
208 210 213 212 212 212 210 205 208 213 211 212 212 209 207 205 214 217 215 218 226 234 248 259 252 216 206 236 261 274 285 291 275 270 260 248 247 258
212 205 204 206 208 206 206 207 211 221 219 213 210 211 208 212 220 223 225 227 234 241 249 261 254 232 236 245 261 273 282 290 293 291 278 268 266 270